Flag for Australia Weather past 2 weeks in Melbourne, Victoria, Australia

Now
55 °F

Passing clouds.


Feels Like: 54 °F
Forecast: 50 / 61 °F
Wind: 6 mph from North

Location: Melbourne Airport

Current Time: May 29, 2015 at 5:31:46 PM

Latest Report: May 29, 2015 at 5:00 PM


Visibility: N/A

Pressure: 30.15 "Hg

Humidity: 55%

Dew point: 39 °F

Location of MelbourneLocation

Historic Weather in Melbourne — Graph

°F

Melbourne temperature yesterday

Maximum temperature yesterday: 66 °F (at 1:00 PM)
Minimum temperature yesterday: 54 °F (at 1:00 AM)
Average temperature yesterday: 58 °F

Past Weeks' High & Low Weather Summary

 TemperatureHumidityPressure
High68 °F (May 17, 2:30 PM)100% (May 14, 9:30 PM)30.63 "Hg (May 14, 9:30 PM)
Low37 °F (May 24, 9:00 AM)43% (May 18, 3:30 PM)29.74 "Hg (May 20, 1:30 AM)
Average53 °F76%30.28 "Hg
* Reported May 14 4:00 PM — May 29 4:30 PM, Melbourne, Weather by CustomWeather, © 2015

Note: Actual official high and low records may vary slightly from our data, if they occured in-between our weather recording intervals... More about our weather records

Advertising

Melbourne weather history for previous 24 hours

 ConditionsComfort  
Time TempWeatherWind HumidityBarometerVisibility
4:30 PM
Fri, May 29
57 °FPassing clouds.8 mph51%30.15 "HgN/A
4:00 PM57 °FPartly sunny.9 mph48%30.15 "HgN/A
3:30 PM57 °FPartly sunny.9 mph51%30.15 "HgN/A
3:00 PM57 °FPartly sunny.13 mph48%30.15 "HgN/A
2:30 PM59 °FPartly sunny.10 mph45%30.12 "HgN/A
2:00 PM57 °FPartly sunny.14 mph48%30.15 "HgN/A
1:30 PM59 °FPartly sunny.14 mph45%30.15 "HgN/A
1:00 PM57 °FPartly sunny.15 mph48%30.15 "HgN/A
12:30 PM57 °FPartly sunny.13 mph48%30.15 "HgN/A
12:00 PM59 °FPartly sunny.14 mph45%30.15 "HgN/A
11:30 AM57 °FPartly sunny.15 mph48%30.18 "HgN/A
11:00 AM57 °FScattered clouds.15 mph51%30.18 "HgN/A
10:30 AM55 °FScattered clouds.13 mph51%30.18 "HgN/A
10:00 AM55 °FPartly sunny.12 mph59%30.18 "HgN/A
9:30 AM52 °FPartly sunny.10 mph62%30.18 "HgN/A
8:00 AM46 °FPassing clouds.10 mph71%30.15 "HgN/A
7:30 AM46 °FPassing clouds.9 mph71%30.15 "HgN/A
7:00 AM46 °FPassing clouds.9 mph71%30.12 "HgN/A
6:30 AM46 °FSunny.8 mph71%30.12 "Hg10 mi
6:00 AM46 °FClear.8 mph71%30.12 "Hg10 mi
5:30 AM45 °FClear.8 mph76%30.12 "Hg10 mi
5:00 AM43 °FClear.7 mph81%30.09 "Hg10 mi
4:30 AM48 °FClear.7 mph66%30.09 "Hg10 mi
4:00 AM48 °FClear.8 mph71%30.09 "Hg10 mi
3:30 AM48 °FClear.8 mph71%30.09 "Hg10 mi
3:00 AM48 °FClear.9 mph71%30.09 "Hg10 mi
2:30 AM50 °FClear.10 mph71%30.09 "Hg10 mi
2:00 AM54 °FPartly cloudy.13 mph63%30.07 "HgN/A
1:30 AM54 °FPassing clouds.14 mph63%30.07 "HgN/A
1:00 AM55 °FPartly cloudy.14 mph59%30.07 "HgN/A
12:30 AM55 °FPassing clouds.15 mph63%30.04 "HgN/A
12:00 AM55 °FPassing clouds.15 mph67%30.04 "HgN/A
11:30 PM
Thu, May 28
55 °FPartly cloudy.15 mph72%30.04 "HgN/A
11:00 PM55 °FPartly cloudy.15 mph72%30.04 "HgN/A
10:30 PM55 °FPartly cloudy.12 mph72%30.04 "HgN/A
10:00 PM55 °FPartly cloudy.12 mph77%30.04 "HgN/A
9:30 PM57 °FPartly cloudy.8 mph72%30.01 "HgN/A
9:00 PM57 °FPartly cloudy.6 mph72%30.01 "HgN/A
8:30 PM59 °FPartly cloudy.15 mph63%30.01 "HgN/A
8:00 PM61 °FPassing clouds.13 mph52%29.98 "HgN/A
7:30 PM59 °FPassing clouds.16 mph59%29.98 "HgN/A
7:00 PM59 °FPassing clouds.17 mph63%29.95 "HgN/A
6:30 PM61 °FPassing clouds.17 mph59%29.95 "HgN/A
6:00 PM61 °FPassing clouds.15 mph55%29.95 "HgN/A
5:30 PM63 °FPassing clouds.15 mph52%29.92 "HgN/A
5:00 PM63 °FClear.17 mph49%29.92 "Hg10 mi
Weather by CustomWeather, © 2015

See weather overviewHow to use our weather pages